Location: DARK SKY Beskydy - Park tmavé oblohy, www.darkskybeskydy.cz
(49.4926°N, 18.5016°E)
Time: 04:31:59
(UTC+02:00)

A-11 Canister half - Pass Details

Date: 24 February 2024
Orbit: 1513 x 1686 km, 47.2° (Epoch: 24 April)

Event Time Altitude Azimuth Distance (km) Brightness Sun altitude
Rises 05:57:33 0° 277° (W) 4,917 - -7.6°
Exits shadow 06:00:10 - 276° (W) 4,093 10.5 -7.2°
Reaches altitude 10° 06:00:45 10° 276° (W) 3,913 10.4 -7.1°
Maximum altitude 06:10:42 73° 195° (SSW) 1,687 9.3 -5.5°
Drops below altitude 10° 06:20:16 10° 113° (ESE) 3,774 12.8 -4.0°
Sets 06:23:18 0° 112° (ESE) 4,735 13.8 -3.5°
